COSMOS 1275 DEB, 12661

Orbit data source: Space-Track

COSMOS 1275 DEB, 12661 is space debris in LEO originally from a launch on Thu, 04 Jun 1981 UTC launched from the Plesetsk Missile And Space Complex (PKMTR). Debris objects in space refer to the collection of defunct objects orbiting the Earth. Examples of debris include non-operational satellites, rocket bodies, and fragments generated from explosions, collisions, or faulty payload assembly.

Loading next visibility...
Identifier
12661, 1981-053R
Orbit
LEO
Country
Flag of CISCIS
Related business
Manufacturer
Unknown
Mission
Spacecraft
Bus & Motor
Unknown
Mass
Unknown
Launch date (UTC)
1981-06-04 (45 years ago)
Launch vehicle
Unknown
Launch site
Plesetsk Missile And Space Complex (PKMTR)
Object type
Payload
Rocket body
Debris
Shape & HBR
Unknown shape, 0.1 m
Radar Cross Section
Small (<0.1 m²)

Expand to show TLE details & history
Last TLE update: 10 hours ago

TLE from 10 hours ago
0 COSMOS 1275 DEB
1 12661U 81053R   26104.64701080  .00000639  00000-0  65055-3 0  9994
2 12661  82.7990 313.2653 0120314  26.8839  33.9235 13.72252056221297
Epoch: 2026-04-14T15:31Z
TLE epoch observation values (Epoch: 2026-04-14T15:31:41.733Z)
Latitude
60.85553°
Longitude
-109.45247°
Altitude
928.627 km
Speed
7.43 km/s
True Right ascension
21h 45m 10s
True Declination
60° 42' 45"
Sunlit
Object was in daylight at epoch
Visualization orbit readout
Latitude
Unknown
Longitude
Unknown
Altitude
Unknown
Speed
Unknown
Apparent Right ascension
Unknown
Apparent Declination
Unknown
Sunlit
N/A
Visualization observer readout
Local Sidereal Time
07:48:42
Azimuth
Unknown
Elevation
Unknown
Doppler factor
Unknown
Orbital elements
Apogee altitude
1,077.287 km
Perigee altitude
900.022 km
Semi-major axis
7,366.791 km
Eccentricity
0.01203
Inclination
82.799°
RAAN
313.2653°
Arg. of periapsis
26.8839°
True anomaly
34.70262°
Mean anomaly
33.9235°
Eccentric anomaly
34.31209°
Mean motion
3.43262 °/min
Orbital period
104.88 mins
BSTAR
0.00065055
Loading maneuver chart data...
Computing Atmospheric mass density...
Loading historical data...
Loading historical data...
Loading historical data...
Loading historical data...
Loading historical data...
Loading historical data...
Loading historical data...

Documentation

Showing up to 5 results
|